Voltar ao catálogo

SL-14 DEB

AtivoPO
NORAD 45297·DEBRIS·🇷🇺 Russia

Lançado Aug 15, 1991 de Plesetsk Cosmodrome

Loading…

Próximas Passagens (próximas 24 horas)

TLE

AtualizadoSource: Space-Track

Época: Sep 14, 2026, 13:50 UTC

1 45297U 91056AK  26257.57641927  .00003200  00000-0  76323-2 0  9999
2 45297  82.5993 110.3811 0042136 193.1458 166.8573 13.22226860314542

Acompanhe SL-14 DEB em tempo real com AllMySat

Download on the App Store